Middletown, OH

7:40 AM EDT on July 28, 2017 (GMT -0400)
Hook Field Municipal

Weather History for KMWO - February, 2013

Change the Weather History Date:

Monday, February 18, 2013

  Actual Average (KFFO) Record (KFFO)
Temperature  
Mean Temperature 37 °F -  
Max Temperature 57 °F 40 °F 65 °F (2017)
Min Temperature 17 °F 23 °F 3 °F (2015)
Degree Days  
Heating Degree Days 28    
Moisture  
Dew Point 27 °F    
Average Humidity 61    
Maximum Humidity 93    
Minimum Humidity 41    
Precipitation  
Precipitation 0.00 in - - ()
Sea Level Pressure  
Sea Level Pressure 30.01 in    
Wind  
Wind Speed 7 mph (South)    
Max Wind Speed 29 mph    
Max Gust Speed 43 mph    
Visibility 10 miles    
Events Rain    
Averages and records for this station are not official NWS values.
T = Trace of Precipitation, MM = Missing Value Source: NWS Daily Summary

Daily Weather History Graph

Daily Weather History Graph

Search for Another Location

Airport or City:

Trip Planner

Search our weather history database for the weather conditions in past years. The results will help you decide how hot, cold, wet, or windy it might be!

Date:

Astronomy

Feb. 18, 2013 Rise Set
Actual Time 7:25 AM EST 6:17 PM EST
Civil Twilight 6:58 AM EST 6:45 PM EST
Nautical Twilight 6:26 AM EST 7:16 PM EST
Astronomical Twilight 5:55 AM EST 7:47 PM EST
Moon 12:03 PM EST (2/18) 2:03 AM EST (2/18)
Length of Visible Light 11h 47m
Length of Day
10h 52m
First Quarter, 58% of the Moon is Illuminated
Feb 18
First Quarter
Feb 25
Full
Mar 4
Last Quarter
Mar 11
New
Mar 19
First Quarter

Hourly Weather History & Observations

Time (EST) Temp. Windchill Dew Point Humidity Pressure Visibility Wind Dir Wind Speed Gust Speed Precip Events Conditions
12:15 AM 17.6 °F - 15.3 °F 91% 30.22 in 10.0 mi Calm Calm - N/A   Clear
12:35 AM 17.6 °F - 15.3 °F 91% 30.23 in 10.0 mi Calm Calm - N/A   Clear
12:55 AM 17.6 °F - 15.3 °F 91% 30.23 in 10.0 mi Calm Calm - N/A   Clear
1:15 AM 17.2 °F - 15.4 °F 93% 30.23 in 10.0 mi Calm Calm - N/A   Clear
1:35 AM 18.7 °F - 14.4 °F 83% 30.24 in 10.0 mi Calm Calm - N/A   Clear
1:55 AM 19.8 °F - 14.7 °F 81% 30.23 in 10.0 mi Calm Calm - N/A   Clear
2:15 AM 19.0 °F - 14.2 °F 81% 30.22 in 10.0 mi Calm Calm - N/A   Clear
2:35 AM 18.3 °F - 14.9 °F 86% 30.23 in 10.0 mi Calm Calm - N/A   Clear
2:55 AM 18.7 °F - 16.0 °F 89% 30.22 in 10.0 mi Calm Calm - N/A   Clear
3:15 AM 18.1 °F - 15.6 °F 90% 30.20 in 10.0 mi Calm Calm - N/A   Clear
3:35 AM 19.0 °F - 16.0 °F 88% 30.20 in 10.0 mi Calm Calm - N/A   Clear
3:55 AM 22.8 °F 18.2 °F 14.5 °F 71% 30.19 in 10.0 mi South 3.5 mph - N/A   Clear
4:15 AM 25.3 °F 21.1 °F 15.8 °F 67% 30.18 in 10.0 mi South 3.5 mph - N/A   Clear
4:35 AM 25.3 °F 21.1 °F 15.3 °F 66% 30.18 in 10.0 mi SSE 3.5 mph - N/A   Clear
4:55 AM 25.3 °F 21.1 °F 15.6 °F 67% 30.17 in 10.0 mi SSE 3.5 mph - N/A   Clear
5:15 AM 25.3 °F 19.7 °F 15.3 °F 66% 30.17 in 10.0 mi South 4.6 mph - N/A   Clear
5:35 AM 25.3 °F 19.7 °F 15.6 °F 67% 30.17 in 10.0 mi SSE 4.6 mph - N/A   Clear
5:55 AM 25.3 °F 19.7 °F 16.2 °F 68% 30.17 in 10.0 mi South 4.6 mph - N/A   Clear
6:15 AM 25.3 °F 18.5 °F 16.0 °F 68% 30.16 in 10.0 mi South 5.8 mph - N/A   Clear
6:35 AM 26.4 °F 19.8 °F 17.1 °F 68% 30.15 in 10.0 mi SSE 5.8 mph - N/A   Clear
6:55 AM 27.5 °F 23.6 °F 18.3 °F 68% 30.15 in 10.0 mi SSE 3.5 mph - N/A   Clear
7:15 AM 27.7 °F 22.4 °F 18.9 °F 69% 30.14 in 10.0 mi South 4.6 mph - N/A   Clear
7:35 AM 27.9 °F 22.6 °F 19.2 °F 70% 30.14 in 10.0 mi South 4.6 mph - N/A   Clear
7:55 AM 27.9 °F 22.6 °F 19.4 °F 71% 30.13 in 10.0 mi South 4.6 mph - N/A   Clear
8:15 AM 27.9 °F 22.6 °F 18.5 °F 68% 30.13 in 10.0 mi South 4.6 mph - N/A   Clear
8:35 AM 29.5 °F 23.4 °F 19.4 °F 66% 30.12 in 10.0 mi South 5.8 mph - N/A   Clear
8:55 AM 32.5 °F 25.5 °F 21.7 °F 64% 30.11 in 10.0 mi South 8.1 mph - N/A   Clear
9:15 AM 32.5 °F 27.1 °F 21.0 °F 63% 30.10 in 10.0 mi South 5.8 mph - N/A   Clear
9:35 AM 35.1 °F 26.9 °F 21.4 °F 57% 30.09 in 10.0 mi South 11.5 mph - N/A   Clear
9:55 AM 37.6 °F 29.6 °F 22.8 °F 55% 30.08 in 10.0 mi South 12.7 mph 17.3 mph N/A   Clear
10:15 AM 38.8 °F 30.4 °F 23.0 °F 53% 30.07 in 10.0 mi SSW 15.0 mph 20.7 mph N/A   Clear
10:35 AM 40.1 °F 32.7 °F 23.7 °F 52% 30.06 in 10.0 mi SSW 12.7 mph - N/A   Clear
10:55 AM 41.0 °F 34.3 °F 24.3 °F 51% 30.06 in 10.0 mi South 11.5 mph 18.4 mph N/A   Clear
11:35 AM 46.0 °F 39.9 °F 28.4 °F 50% 30.04 in 10.0 mi South 13.8 mph - N/A   Clear
11:55 AM 47.7 °F - 30.0 °F 50% 30.04 in 10.0 mi SSW 8.1 mph 20.7 mph N/A   Clear
12:15 PM 48.2 °F - 29.8 °F 49% 30.03 in 10.0 mi South 11.5 mph - N/A   Clear
12:35 PM 50.2 °F - 31.6 °F 49% 30.01 in 10.0 mi South 15.0 mph - N/A   Clear
12:55 PM 52.7 °F - 33.1 °F 47% 30.00 in 10.0 mi South 9.2 mph - N/A   Clear
1:15 PM 53.2 °F - 34.3 °F 49% 29.98 in 10.0 mi SSW 13.8 mph - N/A   Clear
1:35 PM 55.4 °F - 36.7 °F 49% 29.97 in 10.0 mi SSW 17.3 mph 23.0 mph N/A   Clear
1:55 PM 55.4 °F - 37.6 °F 51% 29.96 in 10.0 mi SW 18.4 mph - N/A   Clear
2:15 PM 55.4 °F - 37.0 °F 50% 29.96 in 10.0 mi SW 19.6 mph 25.3 mph N/A   Clear
2:35 PM 55.4 °F - 34.7 °F 46% 29.95 in 10.0 mi SSW 15.0 mph 25.3 mph N/A   Clear
2:55 PM 57.7 °F - 35.2 °F 43% 29.94 in 10.0 mi SW 19.6 mph 25.3 mph N/A   Clear
3:15 PM 56.8 °F - 34.3 °F 43% 29.93 in 10.0 mi SSW 19.6 mph 25.3 mph N/A   Clear
3:35 PM 57.7 °F - 34.9 °F 42% 29.92 in 10.0 mi SSW 19.6 mph 25.3 mph N/A   Clear
3:55 PM 57.7 °F - 34.9 °F 42% 29.90 in 10.0 mi South 16.1 mph 25.3 mph N/A   Clear
4:15 PM 57.7 °F - 34.2 °F 41% 29.89 in 10.0 mi South 13.8 mph 25.3 mph N/A   Clear
4:35 PM 57.7 °F - 34.7 °F 42% 29.88 in 10.0 mi SSW 12.7 mph - N/A   Clear
4:55 PM 57.7 °F - 35.1 °F 43% 29.87 in 10.0 mi SSW 16.1 mph 23.0 mph N/A   Clear
5:15 PM 57.7 °F - 36.0 °F 44% 29.85 in 10.0 mi SSW 17.3 mph 25.3 mph N/A   Clear
5:35 PM 57.7 °F - 36.9 °F 46% 29.85 in 10.0 mi South 11.5 mph 20.7 mph N/A   Mostly Cloudy
5:55 PM 57.7 °F - 36.7 °F 45% 29.85 in 10.0 mi SSW 16.1 mph 27.6 mph N/A   Overcast
6:15 PM 56.7 °F - 36.1 °F 46% 29.84 in 10.0 mi South 12.7 mph 18.4 mph N/A   Overcast
6:35 PM 55.4 °F - 35.6 °F 47% 29.83 in 10.0 mi South 13.8 mph 20.7 mph N/A   Overcast
6:55 PM 55.4 °F - 36.5 °F 49% 29.84 in 10.0 mi South 12.7 mph 17.3 mph N/A   Mostly Cloudy
7:15 PM 55.4 °F - 35.8 °F 48% 29.84 in 10.0 mi South 11.5 mph 19.6 mph N/A   Mostly Cloudy
7:35 PM 55.4 °F - 36.1 °F 48% 29.83 in 10.0 mi South 17.3 mph 21.9 mph N/A   Scattered Clouds
7:55 PM 55.4 °F - 35.6 °F 47% 29.83 in 10.0 mi South 13.8 mph 21.9 mph N/A   Mostly Cloudy
8:15 PM 55.4 °F - 35.8 °F 48% 29.82 in 10.0 mi South 16.1 mph 24.2 mph N/A   Mostly Cloudy
8:35 PM 55.4 °F - 35.6 °F 47% 29.80 in 10.0 mi South 16.1 mph 20.7 mph N/A   Mostly Cloudy
8:55 PM 55.4 °F - 34.7 °F 46% 29.79 in 10.0 mi South 17.3 mph 26.5 mph N/A   Scattered Clouds
9:15 PM 55.0 °F - 35.8 °F 48% 29.79 in 10.0 mi SSW 18.4 mph 28.8 mph N/A   Mostly Cloudy
9:35 PM 52.7 °F - 35.1 °F 51% 29.78 in 10.0 mi SSW 28.8 mph 33.4 mph N/A   Light Drizzle
9:55 PM 52.7 °F - 34.9 °F 51% 29.78 in 10.0 mi SSW 26.5 mph 36.8 mph N/A   Overcast
10:15 PM 52.7 °F - 35.8 °F 53% 29.77 in 10.0 mi SSW 17.3 mph 27.6 mph N/A   Overcast
10:35 PM 47.7 °F - 41.0 °F 78% 29.79 in 7.0 mi SSW 27.6 mph 42.6 mph N/A Rain Rain
10:55 PM 47.7 °F - 43.9 °F 87% 29.78 in 7.0 mi South 13.8 mph 19.6 mph N/A   Unknown
11:15 PM 47.7 °F - 43.0 °F 84% 29.76 in 7.0 mi SSW 21.9 mph 32.2 mph N/A   Unknown
11:35 PM 47.7 °F - 44.1 °F 87% 29.77 in 7.0 mi SSW 24.2 mph 32.2 mph N/A   Unknown
11:55 PM 47.7 °F - 44.6 °F 89% 29.77 in 10.0 mi SSW 13.8 mph 20.7 mph N/A   Overcast